Date String (YYYY-MM-DD hh:mm:ss) UTC,Instrument flags,Ambient pressure (hPa),Sample flow (lpm),Bypass flow (lpm),Sample temperature (°C),Ambient temperature (°C),ASC tube jacket temperature (°C),LED temperature (°C),Box temperature (°C),Sample RH (%),Span deviation,Mass concentration (μg/m³),Mass concentration (μg/m³),Mass concentration (μg/m³)
DateTimeUTC,F1_M11,P_M11,Q1_M11,Q2_M11,T1_M11,T2_M11,T3_M11,T4_M11,T5_M11,U1_M11,ZSPAN_M11,X0_M11,X2_M11,X1_M11
2021-11-23 12:00:00,,0822.2,5.00,0.00,25.5,24.7,00.0,34.5,27.3,07.0,0000.0,0009.95,0003.75,0003.25
2021-11-23 12:01:00,,0822.1,5.01,0.00,25.5,24.7,00.0,34.5,27.3,07.1,0000.0,0009.96,0003.79,0003.23
2021-11-23 12:02:00,,0822.1,4.99,0.00,25.5,24.7,00.0,34.5,27.3,07.1,0000.0,0009.46,0003.82,0003.23
2021-11-23 12:03:00,,0822.1,5.01,0.00,25.5,24.7,00.0,34.5,27.3,07.1,0000.0,0009.24,0003.79,0003.21
2021-11-23 12:04:00,,0822.0,5.01,0.00,25.5,24.6,00.0,34.5,27.3,07.3,0000.0,0009.05,0003.80,0003.21
2021-11-23 12:05:00,,0822.0,5.00,0.00,25.5,24.6,00.0,34.5,27.3,07.5,0000.0,0008.29,0003.86,0003.27
2021-11-23 12:06:00,,0822.1,4.99,0.00,25.5,24.6,00.0,34.5,27.3,07.8,0000.0,0008.87,0004.06,0003.43
2021-11-23 12:07:00,,0822.1,5.00,0.00,25.4,24.6,00.0,34.5,27.2,07.7,0000.0,0009.50,0004.27,0003.58
2021-11-23 12:08:00,,0822.1,5.00,0.00,25.4,24.5,00.0,34.5,27.2,07.6,0000.0,0009.62,0004.39,0003.67
2021-11-23 12:09:00,,0822.1,5.00,0.00,25.4,24.5,00.0,34.4,27.1,07.8,0000.0,0010.23,0004.57,0003.81
2021-11-23 12:10:00,,0822.1,4.99,0.00,25.4,24.5,00.0,34.4,27.1,07.6,0000.0,0010.66,0004.75,0003.94
2021-11-23 12:11:00,,0822.1,5.01,0.00,25.4,24.5,00.0,34.4,27.1,07.7,0000.0,0010.84,0004.88,0004.05
2021-11-23 12:12:00,,0822.0,5.00,0.00,25.3,24.5,00.0,34.4,27.1,07.8,0000.0,0011.32,0005.07,0004.21
2021-11-23 12:13:00,,0822.0,5.00,0.00,25.4,24.5,00.0,34.4,27.1,07.9,0000.0,0011.91,0005.23,0004.37
2021-11-23 12:14:00,,0821.9,5.00,0.00,25.4,24.5,00.0,34.4,27.2,08.1,0000.0,0012.84,0005.48,0004.56
2021-11-23 12:15:00,,0822.0,5.01,0.00,25.3,24.5,00.0,34.4,27.1,07.9,0000.0,0013.75,0005.65,0004.72
2021-11-23 12:16:00,,0822.1,5.00,0.00,25.3,24.5,00.0,34.4,27.1,07.8,0000.0,0015.44,0005.74,0004.79
2021-11-23 12:17:00,,0822.0,4.99,0.00,25.3,24.5,00.0,34.4,27.1,07.8,0000.0,0016.00,0005.77,0004.79
2021-11-23 12:18:00,,0822.0,4.99,0.00,25.3,24.5,00.0,34.4,27.1,08.1,0000.0,0015.80,0005.81,0004.82
2021-11-23 12:19:00,,0822.0,5.00,0.00,25.3,24.4,00.0,34.4,27.0,08.2,0000.0,0016.74,0005.98,0004.94
2021-11-23 12:20:00,,0821.9,5.00,0.00,25.2,24.4,00.0,34.3,27.0,08.2,0000.0,0016.59,0006.05,0005.02
2021-11-23 12:21:00,,0822.3,5.02,0.00,25.2,24.3,00.0,34.3,27.0,08.3,0000.0,0016.63,0006.14,0005.12
2021-11-23 12:22:00,,0822.0,5.00,0.00,25.2,24.3,00.0,34.3,26.9,08.3,0000.0,0017.51,0006.31,0005.25
2021-11-23 12:23:00,,0822.0,5.00,0.00,25.1,24.2,00.0,34.3,26.9,08.4,0000.0,0018.41,0006.40,0005.34
2021-11-23 12:24:00,,0821.9,4.99,0.00,25.1,24.2,00.0,34.3,26.9,08.4,0000.0,0018.45,0006.52,0005.44
2021-11-23 12:25:00,,0821.9,5.01,0.00,25.1,24.2,00.0,34.2,26.8,08.3,0000.0,0018.53,0006.59,0005.49
2021-11-23 12:26:00,,0821.8,4.99,0.00,25.1,24.2,00.0,34.2,26.8,07.9,0000.0,0018.01,0006.57,0005.46
2021-11-23 12:27:00,,0821.8,5.01,0.00,25.1,24.2,00.0,34.2,26.9,07.9,0000.0,0016.55,0006.57,0005.44
2021-11-23 12:28:00,,0821.8,5.01,0.00,25.1,24.3,00.0,34.2,26.9,07.9,0000.0,0015.57,0006.52,0005.44
2021-11-23 12:29:00,,0821.7,4.99,0.00,25.1,24.3,00.0,34.2,26.9,07.8,0000.0,0015.55,0006.44,0005.39
2021-11-23 12:30:00,,0821.8,4.99,0.00,25.1,24.3,00.0,34.2,26.9,07.8,0000.0,0015.08,0006.34,0005.30
2021-11-23 12:31:00,,0821.9,5.01,0.00,25.2,24.3,00.0,34.2,26.9,07.8,0000.0,0014.93,0006.24,0005.21
2021-11-23 12:32:00,,0822.0,5.00,0.00,25.1,24.3,00.0,34.2,26.9,07.7,0000.0,0015.22,0006.11,0005.09
2021-11-23 12:33:00,,0822.0,5.01,0.00,25.1,24.3,00.0,34.2,26.9,07.6,0000.0,0014.29,0005.91,0004.96
2021-11-23 12:34:00,,0822.0,5.00,0.00,25.2,24.3,00.0,34.2,26.9,07.5,0000.0,0012.79,0005.66,0004.77
2021-11-23 12:35:00,,0822.0,4.99,0.00,25.1,24.3,00.0,34.2,26.9,07.6,0000.0,0012.15,0005.43,0004.58
2021-11-23 12:36:00,,0821.8,5.02,0.00,25.2,24.3,00.0,34.2,26.9,07.5,0000.0,0010.95,0005.20,0004.40
2021-11-23 12:37:00,,0821.8,5.01,0.00,25.2,24.3,00.0,34.2,26.9,07.5,0000.0,0010.78,0005.09,0004.33
2021-11-23 12:38:00,,0821.8,4.99,0.00,25.1,24.3,00.0,34.2,26.9,07.6,0000.0,0010.60,0004.98,0004.29
2021-11-23 12:39:00,,0821.7,5.00,0.00,25.1,24.3,00.0,34.2,26.9,07.6,0000.0,0010.47,0004.92,0004.24
2021-11-23 12:40:00,,0821.7,5.00,0.00,25.1,24.3,00.0,34.2,26.9,07.7,0000.0,0010.07,0004.86,0004.19
2021-11-23 12:41:00,,0821.7,5.00,0.00,25.1,24.3,00.0,34.2,26.9,07.7,0000.0,0009.72,0004.82,0004.17
2021-11-23 12:42:00,,0821.7,5.00,0.00,25.1,24.2,00.0,34.1,26.8,07.7,0000.0,0009.82,0004.79,0004.16
2021-11-23 12:43:00,,0821.7,5.00,0.00,25.0,24.2,00.0,34.1,26.8,07.7,0000.0,0009.60,0004.76,0004.16
2021-11-23 12:44:00,,0821.7,5.00,0.00,25.0,24.2,00.0,34.1,26.8,08.0,0000.0,0009.94,0004.85,0004.21
2021-11-23 12:45:00,,0821.7,4.99,0.00,25.0,24.1,00.0,34.1,26.8,08.3,0000.0,0010.36,0005.13,0004.40
2021-11-23 12:46:00,,0821.8,5.02,0.00,25.0,24.1,00.0,34.1,26.8,08.3,0000.0,0010.70,0005.31,0004.55
2021-11-23 12:47:00,,0821.7,5.00,0.00,25.0,24.1,00.0,34.1,26.8,08.0,0000.0,0011.08,0005.46,0004.68
2021-11-23 12:48:00,,0821.7,5.00,0.00,25.0,24.2,00.0,34.1,26.8,07.9,0000.0,0012.57,0005.59,0004.77
2021-11-23 12:49:00,,0821.7,5.00,0.00,25.0,24.2,00.0,34.1,26.8,07.9,0000.0,0013.65,0005.70,0004.84
2021-11-23 12:50:00,,0821.7,5.00,0.00,25.0,24.2,00.0,34.1,26.8,07.9,0000.0,0014.31,0005.81,0004.90
2021-11-23 12:51:00,,0821.6,5.00,0.00,25.1,24.2,00.0,34.1,26.9,07.8,0000.0,0015.00,0005.84,0004.95
2021-11-23 12:52:00,,0821.7,5.01,0.00,25.1,24.3,00.0,34.1,26.9,07.8,0000.0,0015.01,0005.83,0004.97
2021-11-23 12:53:00,,0821.6,5.00,0.00,25.1,24.3,00.0,34.1,26.9,07.8,0000.0,0014.90,0005.86,0004.98
2021-11-23 12:54:00,,0821.6,5.00,0.00,25.1,24.3,00.0,34.1,26.9,07.8,0000.0,0015.32,0005.98,0005.00
2021-11-23 12:55:00,,0821.6,4.98,0.00,25.1,24.3,00.0,34.1,26.8,07.8,0000.0,0015.04,0006.00,0004.99
2021-11-23 12:56:00,,0821.6,5.00,0.00,25.1,24.3,00.0,34.1,26.8,07.8,0000.0,0014.89,0005.86,0004.89
2021-11-23 12:57:00,,0821.6,5.00,0.00,25.1,24.3,00.0,34.1,26.9,07.7,0000.0,0014.59,0005.70,0004.78
2021-11-23 12:58:00,,0821.6,5.01,0.00,25.1,24.3,00.0,34.1,26.9,07.7,0000.0,0014.67,0005.56,0004.69
2021-11-23 12:59:00,,0821.6,5.00,0.00,25.1,24.3,00.0,34.1,26.8,07.7,0000.0,0013.03,0005.49,0004.64
